Netzbetreibername:;Energie- und Wasserversorgung Altenburg GmbH;
gesetzliche Grundlage:;� 23c Abs. 2 Nr. 1 StromNZV (Lastgangtyp: Lastverlauf Mittelspannungsnetz);
Einheit:;kW;
Betrachtungszeitraum:;01.01.2022 bis 31.12.2022;
;;
;;
;;
Datum;Zeit;Wirkleistung (kW)
01.01.2022;00:15:00;7158
01.01.2022;00:30:00;7069
01.01.2022;00:45:00;6974
01.01.2022;01:00:00;6865
01.01.2022;01:15:00;6825
01.01.2022;01:30:00;6658
01.01.2022;01:45:00;6473
01.01.2022;02:00:00;6356
01.01.2022;02:15:00;6182
01.01.2022;02:30:00;6171
01.01.2022;02:45:00;6014
01.01.2022;03:00:00;5990
01.01.2022;03:15:00;5957
01.01.2022;03:30:00;6072
01.01.2022;03:45:00;6072
01.01.2022;04:00:00;6106
01.01.2022;04:15:00;6132
01.01.2022;04:30:00;6066
01.01.2022;04:45:00;6203
01.01.2022;05:00:00;6123
01.01.2022;05:15:00;6235
01.01.2022;05:30:00;6145
01.01.2022;05:45:00;6073
01.01.2022;06:00:00;6092
01.01.2022;06:15:00;6145
01.01.2022;06:30:00;6044
01.01.2022;06:45:00;6045
01.01.2022;07:00:00;6169
01.01.2022;07:15:00;6315
01.01.2022;07:30:00;6442
01.01.2022;07:45:00;6657
01.01.2022;08:00:00;6702
01.01.2022;08:15:00;6802
01.01.2022;08:30:00;6819
01.01.2022;08:45:00;7098
01.01.2022;09:00:00;7219
01.01.2022;09:15:00;7354
01.01.2022;09:30:00;7515
01.01.2022;09:45:00;7740
01.01.2022;10:00:00;7956
01.01.2022;10:15:00;8314
01.01.2022;10:30:00;8473
01.01.2022;10:45:00;8596
01.01.2022;11:00:00;8812
01.01.2022;11:15:00;9296
01.01.2022;11:30:00;9779
01.01.2022;11:45:00;9990
01.01.2022;12:00:00;10038
01.01.2022;12:15:00;9859
01.01.2022;12:30:00;9770
01.01.2022;12:45:00;9633
01.01.2022;13:00:00;9247
01.01.2022;13:15:00;8781
01.01.2022;13:30:00;8695
01.01.2022;13:45:00;8439
01.01.2022;14:00:00;8457
01.01.2022;14:15:00;8524
01.01.2022;14:30:00;8454
01.01.2022;14:45:00;8356
01.01.2022;15:00:00;8375
01.01.2022;15:15:00;8311
01.01.2022;15:30:00;8317
01.01.2022;15:45:00;8356
01.01.2022;16:00:00;8281
01.01.2022;16:15:00;8545
01.01.2022;16:30:00;8787
01.01.2022;16:45:00;9332
01.01.2022;17:00:00;9647
01.01.2022;17:15:00;9833
01.01.2022;17:30:00;9994
01.01.2022;17:45:00;10171
01.01.2022;18:00:00;10357
01.01.2022;18:15:00;10330
01.01.2022;18:30:00;10391
01.01.2022;18:45:00;10419
01.01.2022;19:00:00;10341
01.01.2022;19:15:00;10182
01.01.2022;19:30:00;10041
01.01.2022;19:45:00;9754
01.01.2022;20:00:00;9532
01.01.2022;20:15:00;9441
01.01.2022;20:30:00;9235
01.01.2022;20:45:00;9039
01.01.2022;21:00:00;8911
01.01.2022;21:15:00;8711
01.01.2022;21:30:00;8478
01.01.2022;21:45:00;8339
01.01.2022;22:00:00;8272
01.01.2022;22:15:00;8243
01.01.2022;22:30:00;7979
01.01.2022;22:45:00;7750
01.01.2022;23:00:00;7638
01.01.2022;23:15:00;7329
01.01.2022;23:30:00;7217
01.01.2022;23:45:00;7009
02.01.2022;00:00:00;6758
02.01.2022;00:15:00;6584
02.01.2022;00:30:00;6388
02.01.2022;00:45:00;6253
02.01.2022;01:00:00;6025
02.01.2022;01:15:00;5961
02.01.2022;01:30:00;5946
02.01.2022;01:45:00;5876
02.01.2022;02:00:00;5842
02.01.2022;02:15:00;5801
02.01.2022;02:30:00;5763
02.01.2022;02:45:00;5725
02.01.2022;03:00:00;5763
02.01.2022;03:15:00;5819
02.01.2022;03:30:00;5870
02.01.2022;03:45:00;5920
02.01.2022;04:00:00;5962
02.01.2022;04:15:00;6115
02.01.2022;04:30:00;6146
02.01.2022;04:45:00;6199
02.01.2022;05:00:00;6223
02.01.2022;05:15:00;6286
02.01.2022;05:30:00;6242
02.01.2022;05:45:00;6174
02.01.2022;06:00:00;6170
02.01.2022;06:15:00;6102
02.01.2022;06:30:00;6163
02.01.2022;06:45:00;6165
02.01.2022;07:00:00;6341
02.01.2022;07:15:00;6646
02.01.2022;07:30:00;6792
02.01.2022;07:45:00;7029
02.01.2022;08:00:00;7347
02.01.2022;08:15:00;7623
02.01.2022;08:30:00;7565
02.01.2022;08:45:00;7765
02.01.2022;09:00:00;7958
02.01.2022;09:15:00;8244
02.01.2022;09:30:00;8469
02.01.2022;09:45:00;8636
02.01.2022;10:00:00;8984
02.01.2022;10:15:00;9157
02.01.2022;10:30:00;9218
02.01.2022;10:45:00;9388
02.01.2022;11:00:00;9555
02.01.2022;11:15:00;10123
02.01.2022;11:30:00;10729
02.01.2022;11:45:00;11099
02.01.2022;12:00:00;11064
02.01.2022;12:15:00;10799
02.01.2022;12:30:00;10429
02.01.2022;12:45:00;9877
02.01.2022;13:00:00;9576
02.01.2022;13:15:00;9259
02.01.2022;13:30:00;9078
02.01.2022;13:45:00;8929
02.01.2022;14:00:00;8694
02.01.2022;14:15:00;8509
02.01.2022;14:30:00;8476
02.01.2022;14:45:00;8561
02.01.2022;15:00:00;8506
02.01.2022;15:15:00;8481
02.01.2022;15:30:00;8505
02.01.2022;15:45:00;8377
02.01.2022;16:00:00;8352
02.01.2022;16:15:00;8448
02.01.2022;16:30:00;8675
02.01.2022;16:45:00;9250
02.01.2022;17:00:00;9683
02.01.2022;17:15:00;9922
02.01.2022;17:30:00;10289
02.01.2022;17:45:00;10629
02.01.2022;18:00:00;10717
02.01.2022;18:15:00;10815
02.01.2022;18:30:00;10846
02.01.2022;18:45:00;10757
02.01.2022;19:00:00;10646
02.01.2022;19:15:00;10439
02.01.2022;19:30:00;10261
02.01.2022;19:45:00;9999
02.01.2022;20:00:00;9709
02.01.2022;20:15:00;9498
02.01.2022;20:30:00;9273
02.01.2022;20:45:00;9014
02.01.2022;21:00:00;8812
02.01.2022;21:15:00;8650
02.01.2022;21:30:00;8500
02.01.2022;21:45:00;8331
02.01.2022;22:00:00;8112
02.01.2022;22:15:00;8064
02.01.2022;22:30:00;7773
02.01.2022;22:45:00;7532
02.01.2022;23:00:00;7278
02.01.2022;23:15:00;7027
02.01.2022;23:30:00;6873
02.01.2022;23:45:00;6718
03.01.2022;00:00:00;6449
03.01.2022;00:15:00;6306
03.01.2022;00:30:00;6203
03.01.2022;00:45:00;6121
03.01.2022;01:00:00;6003
03.01.2022;01:15:00;5931
03.01.2022;01:30:00;5880
03.01.2022;01:45:00;5813
03.01.2022;02:00:00;5809
03.01.2022;02:15:00;5840
03.01.2022;02:30:00;5875
03.01.2022;02:45:00;5871
03.01.2022;03:00:00;5875
03.01.2022;03:15:00;5963
03.01.2022;03:30:00;6034
03.01.2022;03:45:00;6092
03.01.2022;04:00:00;6160
03.01.2022;04:15:00;6399
03.01.2022;04:30:00;6516
03.01.2022;04:45:00;6634
03.01.2022;05:00:00;6948
03.01.2022;05:15:00;7324
03.01.2022;05:30:00;7467
03.01.2022;05:45:00;7614
03.01.2022;06:00:00;8162
03.01.2022;06:15:00;9068
03.01.2022;06:30:00;9787
03.01.2022;06:45:00;10142
03.01.2022;07:00:00;10852
03.01.2022;07:15:00;11405
03.01.2022;07:30:00;11973
03.01.2022;07:45:00;12620
03.01.2022;08:00:00;12855
03.01.2022;08:15:00;12862
03.01.2022;08:30:00;12891
03.01.2022;08:45:00;12992
03.01.2022;09:00:00;13147
03.01.2022;09:15:00;13430
03.01.2022;09:30:00;13621
03.01.2022;09:45:00;13899
03.01.2022;10:00:00;13925
03.01.2022;10:15:00;13978
03.01.2022;10:30:00;14034
03.01.2022;10:45:00;14168
03.01.2022;11:00:00;14359
03.01.2022;11:15:00;14702
03.01.2022;11:30:00;14767
03.01.2022;11:45:00;14780
03.01.2022;12:00:00;14744
03.01.2022;12:15:00;14570
03.01.2022;12:30:00;14413
03.01.2022;12:45:00;14250
03.01.2022;13:00:00;14307
03.01.2022;13:15:00;14028
03.01.2022;13:30:00;13800
03.01.2022;13:45:00;13498
03.01.2022;14:00:00;13087
03.01.2022;14:15:00;13162
03.01.2022;14:30:00;13188
03.01.2022;14:45:00;13346
03.01.2022;15:00:00;13193
03.01.2022;15:15:00;13258
03.01.2022;15:30:00;13284
03.01.2022;15:45:00;13173
03.01.2022;16:00:00;13332
03.01.2022;16:15:00;13523
03.01.2022;16:30:00;13609
03.01.2022;16:45:00;13974
03.01.2022;17:00:00;14108
03.01.2022;17:15:00;14476
03.01.2022;17:30:00;14567
03.01.2022;17:45:00;14895
03.01.2022;18:00:00;14889
03.01.2022;18:15:00;14624
03.01.2022;18:30:00;14318
03.01.2022;18:45:00;14293
03.01.2022;19:00:00;14178
03.01.2022;19:15:00;13895
03.01.2022;19:30:00;13359
03.01.2022;19:45:00;13357
03.01.2022;20:00:00;13314
03.01.2022;20:15:00;13025
03.01.2022;20:30:00;12473
03.01.2022;20:45:00;12156
03.01.2022;21:00:00;11614
03.01.2022;21:15:00;11176
03.01.2022;21:30:00;10873
03.01.2022;21:45:00;10591
03.01.2022;22:00:00;10336
03.01.2022;22:15:00;10269
03.01.2022;22:30:00;9783
03.01.2022;22:45:00;9388
03.01.2022;23:00:00;9323
03.01.2022;23:15:00;9012
03.01.2022;23:30:00;8744
03.01.2022;23:45:00;8583
04.01.2022;00:00:00;8371
04.01.2022;00:15:00;8111
04.01.2022;00:30:00;7912
04.01.2022;00:45:00;7819
04.01.2022;01:00:00;7729
04.01.2022;01:15:00;7770
04.01.2022;01:30:00;7685
04.01.2022;01:45:00;7671
04.01.2022;02:00:00;7690
04.01.2022;02:15:00;7632
04.01.2022;02:30:00;7616
04.01.2022;02:45:00;7653
04.01.2022;03:00:00;7676
04.01.2022;03:15:00;7648
04.01.2022;03:30:00;7707
04.01.2022;03:45:00;7967
04.01.2022;04:00:00;7926
04.01.2022;04:15:00;8063
04.01.2022;04:30:00;8240
04.01.2022;04:45:00;8355
04.01.2022;05:00:00;8506
04.01.2022;05:15:00;8758
04.01.2022;05:30:00;8694
04.01.2022;05:45:00;8932
04.01.2022;06:00:00;9223
04.01.2022;06:15:00;10050
04.01.2022;06:30:00;10517
04.01.2022;06:45:00;10861
04.01.2022;07:00:00;11400
04.01.2022;07:15:00;12178
04.01.2022;07:30:00;12745
04.01.2022;07:45:00;13213
04.01.2022;08:00:00;13606
04.01.2022;08:15:00;14162
04.01.2022;08:30:00;14168
04.01.2022;08:45:00;14422
04.01.2022;09:00:00;14374
04.01.2022;09:15:00;14516
04.01.2022;09:30:00;14485
04.01.2022;09:45:00;14462
04.01.2022;10:00:00;14509
04.01.2022;10:15:00;14589
04.01.2022;10:30:00;14590
04.01.2022;10:45:00;14771
04.01.2022;11:00:00;14889
04.01.2022;11:15:00;15271
04.01.2022;11:30:00;15396
04.01.2022;11:45:00;15428
04.01.2022;12:00:00;15574
04.01.2022;12:15:00;15390
04.01.2022;12:30:00;15163
04.01.2022;12:45:00;15317
04.01.2022;13:00:00;14796
04.01.2022;13:15:00;14770
04.01.2022;13:30:00;14465
04.01.2022;13:45:00;14489
04.01.2022;14:00:00;14498
04.01.2022;14:15:00;14556
04.01.2022;14:30:00;14549
04.01.2022;14:45:00;14170
04.01.2022;15:00:00;13824
04.01.2022;15:15:00;13909
04.01.2022;15:30:00;13861
04.01.2022;15:45:00;13792
04.01.2022;16:00:00;14062
04.01.2022;16:15:00;13899
04.01.2022;16:30:00;14142
04.01.2022;16:45:00;14502
04.01.2022;17:00:00;14519
04.01.2022;17:15:00;14655
04.01.2022;17:30:00;14861
04.01.2022;17:45:00;14997
04.01.2022;18:00:00;15316
04.01.2022;18:15:00;15120
04.01.2022;18:30:00;15074
04.01.2022;18:45:00;14878
04.01.2022;19:00:00;14718
04.01.2022;19:15:00;14476
04.01.2022;19:30:00;14196
04.01.2022;19:45:00;13837
04.01.2022;20:00:00;13814
04.01.2022;20:15:00;13354
04.01.2022;20:30:00;12645
04.01.2022;20:45:00;12283
04.01.2022;21:00:00;12096
04.01.2022;21:15:00;11781
04.01.2022;21:30:00;11494
04.01.2022;21:45:00;11060
04.01.2022;22:00:00;10768
04.01.2022;22:15:00;10663
04.01.2022;22:30:00;10288
04.01.2022;22:45:00;9885
04.01.2022;23:00:00;9469
04.01.2022;23:15:00;9175
04.01.2022;23:30:00;8984
04.01.2022;23:45:00;8726
05.01.2022;00:00:00;8502
05.01.2022;00:15:00;8211
05.01.2022;00:30:00;8223
05.01.2022;00:45:00;8119
05.01.2022;01:00:00;8163
05.01.2022;01:15:00;8090
05.01.2022;01:30:00;7976
05.01.2022;01:45:00;7928
05.01.2022;02:00:00;7881
05.01.2022;02:15:00;7872
05.01.2022;02:30:00;7907
05.01.2022;02:45:00;7843
05.01.2022;03:00:00;7899
05.01.2022;03:15:00;7895
05.01.2022;03:30:00;8058
05.01.2022;03:45:00;8194
05.01.2022;04:00:00;8207
05.01.2022;04:15:00;8389
05.01.2022;04:30:00;8356
05.01.2022;04:45:00;8449
05.01.2022;05:00:00;8809
05.01.2022;05:15:00;9057
05.01.2022;05:30:00;9206
05.01.2022;05:45:00;9506
05.01.2022;06:00:00;9825
05.01.2022;06:15:00;10763
05.01.2022;06:30:00;11184
05.01.2022;06:45:00;11574
05.01.2022;07:00:00;12080
05.01.2022;07:15:00;12692
05.01.2022;07:30:00;13139
05.01.2022;07:45:00;13677
05.01.2022;08:00:00;14139
05.01.2022;08:15:00;14557
05.01.2022;08:30:00;14818
05.01.2022;08:45:00;14890
05.01.2022;09:00:00;15059
05.01.2022;09:15:00;15094
05.01.2022;09:30:00;15145
05.01.2022;09:45:00;15258
05.01.2022;10:00:00;15159
05.01.2022;10:15:00;15325
05.01.2022;10:30:00;15180
05.01.2022;10:45:00;15420
05.01.2022;11:00:00;15416
05.01.2022;11:15:00;15610
05.01.2022;11:30:00;15574
05.01.2022;11:45:00;15886
05.01.2022;12:00:00;15766
05.01.2022;12:15:00;15385
05.01.2022;12:30:00;15197
05.01.2022;12:45:00;15338
05.01.2022;13:00:00;15001
05.01.2022;13:15:00;15122
05.01.2022;13:30:00;14845
05.01.2022;13:45:00;14498
05.01.2022;14:00:00;14135
05.01.2022;14:15:00;13947
05.01.2022;14:30:00;14021
05.01.2022;14:45:00;14028
05.01.2022;15:00:00;14257
05.01.2022;15:15:00;14306
05.01.2022;15:30:00;14160
05.01.2022;15:45:00;13914
05.01.2022;16:00:00;14138
05.01.2022;16:15:00;14165
05.01.2022;16:30:00;14370
05.01.2022;16:45:00;14748
05.01.2022;17:00:00;15123
05.01.2022;17:15:00;15304
05.01.2022;17:30:00;15365
05.01.2022;17:45:00;15240
05.01.2022;18:00:00;15028
05.01.2022;18:15:00;15253
05.01.2022;18:30:00;15379
05.01.2022;18:45:00;15359
05.01.2022;19:00:00;14895
05.01.2022;19:15:00;14495
05.01.2022;19:30:00;13864
05.01.2022;19:45:00;13595
05.01.2022;20:00:00;13443
05.01.2022;20:15:00;12864
05.01.2022;20:30:00;12375
05.01.2022;20:45:00;12139
05.01.2022;21:00:00;11874
05.01.2022;21:15:00;11538
05.01.2022;21:30:00;11279
05.01.2022;21:45:00;10834
05.01.2022;22:00:00;10605
05.01.2022;22:15:00;10516
05.01.2022;22:30:00;10347
05.01.2022;22:45:00;9966
05.01.2022;23:00:00;9779
05.01.2022;23:15:00;9485
05.01.2022;23:30:00;9290
05.01.2022;23:45:00;9030
06.01.2022;00:00:00;8834
06.01.2022;00:15:00;8586
06.01.2022;00:30:00;8416
06.01.2022;00:45:00;8346
06.01.2022;01:00:00;8298
06.01.2022;01:15:00;8226
06.01.2022;01:30:00;8246
06.01.2022;01:45:00;8211
06.01.2022;02:00:00;8151
06.01.2022;02:15:00;8164
06.01.2022;02:30:00;8172
06.01.2022;02:45:00;8188
06.01.2022;03:00:00;8263
06.01.2022;03:15:00;8244
06.01.2022;03:30:00;8417
06.01.2022;03:45:00;8409
06.01.2022;04:00:00;8553
06.01.2022;04:15:00;8752
06.01.2022;04:30:00;8745
06.01.2022;04:45:00;8908
06.01.2022;05:00:00;9003
06.01.2022;05:15:00;9237
06.01.2022;05:30:00;9378
06.01.2022;05:45:00;9709
06.01.2022;06:00:00;10010
06.01.2022;06:15:00;10826
06.01.2022;06:30:00;11273
06.01.2022;06:45:00;11572
06.01.2022;07:00:00;12249
06.01.2022;07:15:00;13011
06.01.2022;07:30:00;13454
06.01.2022;07:45:00;13995
06.01.2022;08:00:00;14069
06.01.2022;08:15:00;14018
06.01.2022;08:30:00;14278
06.01.2022;08:45:00;14659
06.01.2022;09:00:00;15058
06.01.2022;09:15:00;15083
06.01.2022;09:30:00;15202
06.01.2022;09:45:00;15109
06.01.2022;10:00:00;15114
06.01.2022;10:15:00;14992
06.01.2022;10:30:00;15006
06.01.2022;10:45:00;15050
06.01.2022;11:00:00;15290
06.01.2022;11:15:00;15381
06.01.2022;11:30:00;15670
06.01.2022;11:45:00;15635
06.01.2022;12:00:00;15277
06.01.2022;12:15:00;15252
06.01.2022;12:30:00;15231
06.01.2022;12:45:00;15306
06.01.2022;13:00:00;14933
06.01.2022;13:15:00;14718
06.01.2022;13:30:00;14569
06.01.2022;13:45:00;14511
06.01.2022;14:00:00;14226
06.01.2022;14:15:00;14209
06.01.2022;14:30:00;13920
06.01.2022;14:45:00;13667
06.01.2022;15:00:00;13648
06.01.2022;15:15:00;13911
06.01.2022;15:30:00;14054
06.01.2022;15:45:00;13974
06.01.2022;16:00:00;13760
06.01.2022;16:15:00;13525
06.01.2022;16:30:00;13837
06.01.2022;16:45:00;14144
06.01.2022;17:00:00;14776
06.01.2022;17:15:00;14957
06.01.2022;17:30:00;15099
06.01.2022;17:45:00;15074
06.01.2022;18:00:00;14756
06.01.2022;18:15:00;14961
06.01.2022;18:30:00;15384
06.01.2022;18:45:00;15050
06.01.2022;19:00:00;14799
06.01.2022;19:15:00;14209
06.01.2022;19:30:00;13995
06.01.2022;19:45:00;13788
06.01.2022;20:00:00;13311
06.01.2022;20:15:00;12909
06.01.2022;20:30:00;12517
06.01.2022;20:45:00;12092
06.01.2022;21:00:00;11849
06.01.2022;21:15:00;11575
06.01.2022;21:30:00;11391
06.01.2022;21:45:00;11094
06.01.2022;22:00:00;11051
06.01.2022;22:15:00;10850
06.01.2022;22:30:00;10489
06.01.2022;22:45:00;10244
06.01.2022;23:00:00;9993
06.01.2022;23:15:00;9853
06.01.2022;23:30:00;9564
06.01.2022;23:45:00;9409
07.01.2022;00:00:00;9393
07.01.2022;00:15:00;9145
07.01.2022;00:30:00;8868
07.01.2022;00:45:00;8730
07.01.2022;01:00:00;8575
07.01.2022;01:15:00;8541
07.01.2022;01:30:00;8504
07.01.2022;01:45:00;8538
07.01.2022;02:00:00;8446
07.01.2022;02:15:00;8577
07.01.2022;02:30:00;8594
07.01.2022;02:45:00;8590
07.01.2022;03:00:00;8665
07.01.2022;03:15:00;8659
07.01.2022;03:30:00;8669
07.01.2022;03:45:00;8694
07.01.2022;04:00:00;8698
07.01.2022;04:15:00;8999
07.01.2022;04:30:00;9060
07.01.2022;04:45:00;9115
07.01.2022;05:00:00;9347
07.01.2022;05:15:00;9500
07.01.2022;05:30:00;9528
07.01.2022;05:45:00;9694
07.01.2022;06:00:00;9919
07.01.2022;06:15:00;10846
07.01.2022;06:30:00;11302
07.01.2022;06:45:00;11638
07.01.2022;07:00:00;12349
07.01.2022;07:15:00;13197
07.01.2022;07:30:00;13497
07.01.2022;07:45:00;13814
07.01.2022;08:00:00;14033
07.01.2022;08:15:00;14015
07.01.2022;08:30:00;14077
07.01.2022;08:45:00;14233
07.01.2022;09:00:00;14291
07.01.2022;09:15:00;14551
07.01.2022;09:30:00;14690
07.01.2022;09:45:00;14814
07.01.2022;10:00:00;14841
07.01.2022;10:15:00;15145
07.01.2022;10:30:00;15150
07.01.2022;10:45:00;15375
07.01.2022;11:00:00;15327
07.01.2022;11:15:00;15285
07.01.2022;11:30:00;15432
07.01.2022;11:45:00;15494
07.01.2022;12:00:00;15394
07.01.2022;12:15:00;15320
07.01.2022;12:30:00;15265
07.01.2022;12:45:00;15239
07.01.2022;13:00:00;15286
07.01.2022;13:15:00;14972
07.01.2022;13:30:00;14796
07.01.2022;13:45:00;14444
07.01.2022;14:00:00;14434
07.01.2022;14:15:00;14522
07.01.2022;14:30:00;14440
07.01.2022;14:45:00;14332
07.01.2022;15:00:00;14208
07.01.2022;15:15:00;13993
07.01.2022;15:30:00;14104
07.01.2022;15:45:00;14117
07.01.2022;16:00:00;13980
07.01.2022;16:15:00;13907
07.01.2022;16:30:00;13867
07.01.2022;16:45:00;14475
07.01.2022;17:00:00;14531
07.01.2022;17:15:00;14543
07.01.2022;17:30:00;14663
07.01.2022;17:45:00;14752
07.01.2022;18:00:00;14763
07.01.2022;18:15:00;14609
07.01.2022;18:30:00;14353
07.01.2022;18:45:00;14275
07.01.2022;19:00:00;14238
07.01.2022;19:15:00;13780
07.01.2022;19:30:00;13225
07.01.2022;19:45:00;12879
07.01.2022;20:00:00;12571
07.01.2022;20:15:00;12153
07.01.2022;20:30:00;11885
07.01.2022;20:45:00;11672
07.01.2022;21:00:00;11372
07.01.2022;21:15:00;11058
07.01.2022;21:30:00;10863
07.01.2022;21:45:00;10784
07.01.2022;22:00:00;10605
07.01.2022;22:15:00;10534
07.01.2022;22:30:00;10373
07.01.2022;22:45:00;10082
07.01.2022;23:00:00;9850
07.01.2022;23:15:00;9622
07.01.2022;23:30:00;9370
07.01.2022;23:45:00;8918
08.01.2022;00:00:00;8666
08.01.2022;00:15:00;8455
08.01.2022;00:30:00;8191
08.01.2022;00:45:00;8012
08.01.2022;01:00:00;7902
08.01.2022;01:15:00;7836
08.01.2022;01:30:00;7830
08.01.2022;01:45:00;7746
08.01.2022;02:00:00;7731
08.01.2022;02:15:00;7627
08.01.2022;02:30:00;7636
08.01.2022;02:45:00;7594
08.01.2022;03:00:00;7666
08.01.2022;03:15:00;7699
08.01.2022;03:30:00;7771
08.01.2022;03:45:00;7914
08.01.2022;04:00:00;7915
08.01.2022;04:15:00;8006
08.01.2022;04:30:00;7938
08.01.2022;04:45:00;7914
08.01.2022;05:00:00;8070
08.01.2022;05:15:00;8146
08.01.2022;05:30:00;8096
08.01.2022;05:45:00;8018
08.01.2022;06:00:00;8005
08.01.2022;06:15:00;8371
08.01.2022;06:30:00;8606
08.01.2022;06:45:00;8703
08.01.2022;07:00:00;8967
08.01.2022;07:15:00;9255
08.01.2022;07:30:00;9546
08.01.2022;07:45:00;9907
08.01.2022;08:00:00;10407
08.01.2022;08:15:00;10859
08.01.2022;08:30:00;11061
08.01.2022;08:45:00;11164
08.01.2022;09:00:00;11498
08.01.2022;09:15:00;11803
08.01.2022;09:30:00;11848
08.01.2022;09:45:00;12197
08.01.2022;10:00:00;12391
08.01.2022;10:15:00;12427
08.01.2022;10:30:00;12598
08.01.2022;10:45:00;12575
08.01.2022;11:00:00;12796
08.01.2022;11:15:00;13167
08.01.2022;11:30:00;13323
08.01.2022;11:45:00;13505
08.01.2022;12:00:00;13559
08.01.2022;12:15:00;13317
08.01.2022;12:30:00;12936
08.01.2022;12:45:00;12738
08.01.2022;13:00:00;12352
08.01.2022;13:15:00;12014
08.01.2022;13:30:00;11522
08.01.2022;13:45:00;10910
08.01.2022;14:00:00;10641
08.01.2022;14:15:00;10404
08.01.2022;14:30:00;10241
08.01.2022;14:45:00;10196
08.01.2022;15:00:00;10197
08.01.2022;15:15:00;10157
08.01.2022;15:30:00;10151
08.01.2022;15:45:00;10234
08.01.2022;16:00:00;10154
08.01.2022;16:15:00;10149
08.01.2022;16:30:00;10299
08.01.2022;16:45:00;10657
08.01.2022;17:00:00;11251
08.01.2022;17:15:00;11581
08.01.2022;17:30:00;11833
08.01.2022;17:45:00;12104
08.01.2022;18:00:00;12283
08.01.2022;18:15:00;12235
08.01.2022;18:30:00;12250
08.01.2022;18:45:00;12120
08.01.2022;19:00:00;11917
08.01.2022;19:15:00;11877
08.01.2022;19:30:00;11550
08.01.2022;19:45:00;11249
08.01.2022;20:00:00;11076
08.01.2022;20:15:00;10752
08.01.2022;20:30:00;10296
08.01.2022;20:45:00;10008
08.01.2022;21:00:00;9801
08.01.2022;21:15:00;9607
08.01.2022;21:30:00;9394
08.01.2022;21:45:00;9235
08.01.2022;22:00:00;9139
08.01.2022;22:15:00;9112
08.01.2022;22:30:00;8913
08.01.2022;22:45:00;8759
08.01.2022;23:00:00;8610
08.01.2022;23:15:00;8364
08.01.2022;23:30:00;8251
08.01.2022;23:45:00;8090
09.01.2022;00:00:00;7840
09.01.2022;00:15:00;7532
09.01.2022;00:30:00;7426
09.01.2022;00:45:00;7248
09.01.2022;01:00:00;7077
09.01.2022;01:15:00;7049
09.01.2022;01:30:00;6919
09.01.2022;01:45:00;6962
09.01.2022;02:00:00;6876
09.01.2022;02:15:00;6807
09.01.2022;02:30:00;6795
09.01.2022;02:45:00;6874
09.01.2022;03:00:00;6878
09.01.2022;03:15:00;6904
09.01.2022;03:30:00;6924
09.01.2022;03:45:00;7029
09.01.2022;04:00:00;6950
09.01.2022;04:15:00;6934
09.01.2022;04:30:00;6939
09.01.2022;04:45:00;7112
09.01.2022;05:00:00;7037
09.01.2022;05:15:00;7199
09.01.2022;05:30:00;7096
09.01.2022;05:45:00;7095
09.01.2022;06:00:00;6969
09.01.2022;06:15:00;6910
09.01.2022;06:30:00;6881
09.01.2022;06:45:00;7001
09.01.2022;07:00:00;7033
09.01.2022;07:15:00;7346
09.01.2022;07:30:00;7674
09.01.2022;07:45:00;7964
09.01.2022;08:00:00;8356
09.01.2022;08:15:00;8319
09.01.2022;08:30:00;8668
09.01.2022;08:45:00;8996
09.01.2022;09:00:00;9356
09.01.2022;09:15:00;9578
09.01.2022;09:30:00;9550
09.01.2022;09:45:00;9811
09.01.2022;10:00:00;10006
09.01.2022;10:15:00;10315
09.01.2022;10:30:00;10461
09.01.2022;10:45:00;10726
09.01.2022;11:00:00;11086
09.01.2022;11:15:00;11567
09.01.2022;11:30:00;12032
09.01.2022;11:45:00;12185
09.01.2022;12:00:00;12215
09.01.2022;12:15:00;12007
09.01.2022;12:30:00;11681
09.01.2022;12:45:00;11181
09.01.2022;13:00:00;10777
09.01.2022;13:15:00;10432
09.01.2022;13:30:00;10325
09.01.2022;13:45:00;10062
09.01.2022;14:00:00;9936
09.01.2022;14:15:00;9878
09.01.2022;14:30:00;9756
09.01.2022;14:45:00;9788
09.01.2022;15:00:00;9808
09.01.2022;15:15:00;9762
09.01.2022;15:30:00;9896
09.01.2022;15:45:00;9698
09.01.2022;16:00:00;9624
09.01.2022;16:15:00;9801
09.01.2022;16:30:00;9870
09.01.2022;16:45:00;10133
09.01.2022;17:00:00;10633
09.01.2022;17:15:00;10921
09.01.2022;17:30:00;11245
09.01.2022;17:45:00;11479
09.01.2022;18:00:00;11635
09.01.2022;18:15:00;11562
09.01.2022;18:30:00;11532
09.01.2022;18:45:00;11558
09.01.2022;19:00:00;11336
09.01.2022;19:15:00;11159
09.01.2022;19:30:00;10844
09.01.2022;19:45:00;10645
09.01.2022;20:00:00;10390
09.01.2022;20:15:00;10102
09.01.2022;20:30:00;9876
09.01.2022;20:45:00;9592
09.01.2022;21:00:00;9346
09.01.2022;21:15:00;9286
09.01.2022;21:30:00;9126
09.01.2022;21:45:00;8976
09.01.2022;22:00:00;8982
09.01.2022;22:15:00;9142
09.01.2022;22:30:00;9038
09.01.2022;22:45:00;8850
09.01.2022;23:00:00;8710
09.01.2022;23:15:00;8501
09.01.2022;23:30:00;8377
09.01.2022;23:45:00;8184
10.01.2022;00:00:00;7998
10.01.2022;00:15:00;7799
10.01.2022;00:30:00;7701
10.01.2022;00:45:00;7525
10.01.2022;01:00:00;7418
10.01.2022;01:15:00;7417
10.01.2022;01:30:00;7491
10.01.2022;01:45:00;7493
10.01.2022;02:00:00;7470
10.01.2022;02:15:00;7455
10.01.2022;02:30:00;7468
10.01.2022;02:45:00;7316
10.01.2022;03:00:00;7324
10.01.2022;03:15:00;7399
10.01.2022;03:30:00;7421
10.01.2022;03:45:00;7583
10.01.2022;04:00:00;7812
10.01.2022;04:15:00;8064
10.01.2022;04:30:00;8056
10.01.2022;04:45:00;8112
10.01.2022;05:00:00;8279
10.01.2022;05:15:00;8667
10.01.2022;05:30:00;8740
10.01.2022;05:45:00;8980
10.01.2022;06:00:00;9386
10.01.2022;06:15:00;10418
10.01.2022;06:30:00;10970
10.01.2022;06:45:00;11559
10.01.2022;07:00:00;12133
10.01.2022;07:15:00;12779
10.01.2022;07:30:00;13492
10.01.2022;07:45:00;14233